This is the latest recevied weather packets stored in our database for station/object W2EH. If no packets are shown the sender has not sent any weather packets the latest 10 day(s).
| Time | Temp. | Humidity | Pressure | Rain* | Wind** | Luminosity | Snow |
|---|---|---|---|---|---|---|---|
| 1777644573 | 13.89° C | 98% | 1013.5 hPa | 4.83 mm | - | 10 W/m² | - |
| 1777644268 | 13.89° C | 98% | 1014 hPa | 7.87 mm | - | 8 W/m² | - |
| 1777643965 | 13.89° C | 98% | 1013.9 hPa | 8.38 mm | - | 5 W/m² | - |
| 1777643662 | 13.89° C | 98% | 1014 hPa | 6.6 mm | - | 5 W/m² | - |
| 1777643360 | 13.89° C | 98% | 1014.2 hPa | 7.11 mm | - | 6 W/m² | - |
| 1777643056 | 13.89° C | 98% | 1014.4 hPa | 6.1 mm | - | 4 W/m² | - |
| 1777642752 | 14.44° C | 98% | 1014.3 hPa | 4.83 mm | - | 6 W/m² | - |
| 1777642450 | 13.89° C | 98% | 1014.5 hPa | 3.05 mm | - | 5 W/m² | - |
| 1777642146 | 13.89° C | 98% | 1014 hPa | 1.78 mm | - | 7 W/m² | - |
| 1777641843 | 14.44° C | 98% | 1013.2 hPa | 0.51 mm | - | 8 W/m² | - |
| 1777641538 | 14.44° C | 98% | 1013.6 hPa | 0.51 mm | - | 8 W/m² | - |
| 1777641238 | 14.44° C | 98% | 1013.1 hPa | 0.51 mm | - | 5 W/m² | - |
| 1777640935 | 14.44° C | 98% | 1012.6 hPa | 0 mm | - | 8 W/m² | - |
| 1777640632 | 14.44° C | 98% | 1012.8 hPa | 0 mm | - | 6 W/m² | - |
| 1777640328 | 14.44° C | 98% | 1013.1 hPa | 0 mm | - | 5 W/m² | - |
| 1777640025 | 14.44° C | 98% | 1013.4 hPa | 0 mm | - | 3 W/m² | - |
| 1777639722 | 14.44° C | 98% | 1013.4 hPa | 0 mm | - | 4 W/m² | - |
| 1777639420 | 14.44° C | 98% | 1013.5 hPa | 0 mm | - | 3 W/m² | - |
| 1777639120 | 14.44° C | 98% | 1013 hPa | 0 mm | - | 2 W/m² | - |
| 1777638817 | 14.44° C | 98% | 1012.7 hPa | 0 mm | - | 3 W/m² | - |
| 1777638518 | 14.44° C | 98% | 1012.5 hPa | 0 mm | - | 3 W/m² | - |
| 1777638215 | 14.44° C | 98% | 1012.6 hPa | 0 mm | - | 2 W/m² | - |
| 1777637911 | 14.44° C | 98% | 1012.7 hPa | 0 mm | - | 1 W/m² | - |
| 1777637607 | 14.44° C | 98% | 1012.1 hPa | 0.51 mm | - | 1 W/m² | - |
| 1777637305 | 14.44° C | 98% | 1012.4 hPa | 1.27 mm | - | 1 W/m² | - |
* Rain latest hour (hover to see other rain measurements)
** Current wind speed in m/s (hover to see current wind gust speed)